Location: Waco, TX
(31.5480°N, 97.1670°W)
Time: 04:32:30
(UTC-06:00)

ISS - Pass Details

Date: 19 January 2019
Orbit: 404 x 407 km, 51.6° (Epoch: 16 January)

Event Time Altitude Azimuth Distance (km) Brightness Sun altitude
Rises 02:53:08 0° 330° (NNW) 2,329 - -58.1°
Reaches altitude 10° 02:55:43 10° 351° (N) 1,466 - -57.5°
Maximum altitude 02:58:01 17° 36° (NE) 1,099 - -57.0°
Drops below altitude 10° 03:00:18 10° 80° (E) 1,461 - -56.6°
Sets 03:02:51 0° 101° (E) 2,318 - -56.0°
